Change the Weather History Date:

Monday, February 13, 2012

  Actual Average Record
Temperature  
Mean Temperature 32 °F -  
Max Temperature 46 °F 39 °F 36 °F (2014)
Min Temperature 19 °F 26 °F 14 °F (2015)
Degree Days  
Heating Degree Days 32    
Moisture  
Dew Point 14 °F    
Average Humidity 48    
Maximum Humidity 74    
Minimum Humidity 24    
Precipitation  
Precipitation 0.00 in - - ()
Sea Level Pressure  
Sea Level Pressure 30.16 in    
Wind  
Wind Speed 7 mph (SW)    
Max Wind Speed 15 mph    
Max Gust Speed 22 mph    
Visibility 10 miles    
Events      
Averages and records for this station are not official NWS values.
T = Trace of Precipitation, MM = Missing Value Source: NWS Daily Summary

Daily Weather History Graph

Daily Weather History Graph

Search for Another Location

Airport or City:

Trip Planner

Search our weather history database for the weather conditions in past years. The results will help you decide how hot, cold, wet, or windy it might be!

Date:

Astronomy

Feb. 13, 2012 Rise Set
Actual Time 6:59 AM EST 5:41 PM EST
Civil Twilight 6:31 AM EST 6:08 PM EST
Nautical Twilight 6:00 AM EST 6:39 PM EST
Astronomical Twilight 5:30 AM EST 7:10 PM EST
Moon No Moon Rise 10:02 AM EST (2/13)
Length of Visible Light 11h 36m
Length of Day
10h 42m
Waning Gibbous, 62% of the Moon is Illuminated
Feb 13
Waning Gibbous
Feb 14
Last Quarter
Feb 21
New
Feb 29
First Quarter
Mar 8
Full

Hourly Weather History & Observations

Time (EST) Temp. Windchill Dew Point Humidity Pressure Visibility Wind Dir Wind Speed Gust Speed Precip Events Conditions
12:52 AM 27.0 °F 16.7 °F 10.0 °F 49% 30.16 in 10.0 mi West 11.5 mph - N/A   Clear
1:52 AM 24.1 °F 17.0 °F 10.0 °F 55% 30.17 in 10.0 mi WSW 5.8 mph - N/A   Clear
2:52 AM 21.0 °F 14.6 °F 10.9 °F 65% 30.17 in 10.0 mi WSW 4.6 mph - N/A   Clear
3:52 AM 19.0 °F 13.9 °F 10.9 °F 71% 30.18 in 10.0 mi SSW 3.5 mph - N/A   Clear
4:52 AM 19.0 °F - 10.9 °F 71% 30.19 in 10.0 mi Calm Calm - N/A   Clear
5:52 AM 19.0 °F 13.9 °F 10.9 °F 71% 30.20 in 10.0 mi SSW 3.5 mph - N/A   Clear
6:07 AM 19.4 °F - 12.2 °F 74% 30.20 in 10.0 mi Calm Calm - N/A   Clear
6:52 AM 21.0 °F - 12.0 °F 68% 30.21 in 10.0 mi Calm Calm - N/A   Clear
7:52 AM 26.1 °F 16.2 °F 15.1 °F 63% 30.22 in 10.0 mi SSW 10.4 mph - N/A   Clear
8:52 AM 30.0 °F 21.7 °F 16.0 °F 56% 30.21 in 10.0 mi SSW 9.2 mph - N/A   Clear
9:52 AM 34.0 °F 26.0 °F 14.0 °F 44% 30.22 in 10.0 mi SSW 10.4 mph - N/A   Clear
10:52 AM 37.9 °F 30.5 °F 14.0 °F 38% 30.21 in 10.0 mi SSW 11.5 mph - N/A   Clear
11:52 AM 41.0 °F 33.5 °F 10.9 °F 29% 30.19 in 10.0 mi WSW 13.8 mph - N/A   Clear
12:52 PM 43.0 °F 36.4 °F 12.0 °F 28% 30.16 in 10.0 mi WSW 12.7 mph 19.6 mph N/A   Clear
1:52 PM 45.0 °F 38.2 °F 12.0 °F 26% 30.13 in 10.0 mi WSW 15.0 mph 21.9 mph N/A   Clear
2:52 PM 46.0 °F 40.2 °F 12.0 °F 25% 30.12 in 10.0 mi SW 12.7 mph - N/A   Partly Cloudy
3:52 PM 46.9 °F - 12.0 °F 24% 30.11 in 10.0 mi WSW 12.7 mph - N/A   Scattered Clouds
4:52 PM 43.0 °F 41.3 °F 12.9 °F 30% 30.12 in 10.0 mi SSW 3.5 mph - N/A   Mostly Cloudy
5:52 PM 42.1 °F 40.2 °F 14.0 °F 32% 30.12 in 10.0 mi South 3.5 mph - N/A   Mostly Cloudy
6:52 PM 37.0 °F - 18.0 °F 46% 30.12 in 10.0 mi Calm Calm - N/A   Mostly Cloudy
7:52 PM 33.1 °F 30.0 °F 21.0 °F 61% 30.12 in 10.0 mi South 3.5 mph - N/A   Mostly Cloudy
8:52 PM 30.9 °F 26.2 °F 19.0 °F 61% 30.11 in 10.0 mi SSE 4.6 mph - N/A   Mostly Cloudy
9:52 PM 39.0 °F 36.8 °F 18.0 °F 43% 30.10 in 10.0 mi South 3.5 mph - N/A   Mostly Cloudy
10:52 PM 39.9 °F 35.1 °F 18.0 °F 41% 30.11 in 10.0 mi SSW 6.9 mph - N/A   Mostly Cloudy
11:52 PM 41.0 °F 33.9 °F 17.1 °F 38% 30.10 in 10.0 mi SSW 12.7 mph - N/A   Clear